Wind_Speed
6 5 5 5 5 6 7 7 8 8 8 8 7 7 6 6 6 6 6 5 5 5 5 5 5 6 6 6 6 6 6 6 6 7 7 7 7 7 8 8 8 8 8
6 6 6 6 6 6 6 7 7 8 7 7 7 6 5 5 5 5 5 5 5 4 4 5 5 5 5 5 5 5 6 6 6 6 6 7 7 7 8 8 7 7 7
5 5 6 6 6 6 6 7 7 6 6 6 6 5 4 4 4 4 4 4 4 4 4 4 5 5 5 5 5 5 5 5 6 6 6 6 7 7 7 7 7 6 7
5 5 6 6 6 6 7 6 6 6 5 4 4 4 3 3 4 3 4 4 4 3 4 4 4 4 4 4 4 5 5 5 5 6 6 6 6 7 7 7 7 6 6
5 5 6 6 6 6 6 6 5 5 5 4 3 3 3 4 4 4 4 4 3 3 3 3 3 3 3 4 4 4 5 5 5 5 6 6 6 6 6 6 6 6 6
5 5 5 6 6 6 5 5 5 5 4 4 3 3 3 3 4 4 4 4 3 3 3 2 3 2 3 3 3 4 4 5 5 5 6 6 5 5 5 5 5 6 6
5 5 5 5 6 6 6 6 5 4 4 4 3 4 4 3 3 4 3 3 3 3 3 3 2 2 2 2 3 3 3 4 4 4 5 5 4 4 4 5 5 4 5
6 5 4 4 5 5 5 5 4 3 3 3 3 3 3 3 2 3 3 3 3 3 3 2 2 2 3 3 3 3 3 4 4 4 5 4 4 4 4 4 3 3 3
6 5 4 4 4 4 3 3 3 2 2 2 2 2 2 2 2 2 3 3 3 3 3 3 2 3 3 3 3 3 4 4 4 4 4 4 4 3 3 3 3 2 2
6 6 4 3 3 3 2 2 2 1 0 1 1 2 1 1 2 2 2 2 3 3 2 2 2 3 3 3 4 4 4 4 4 4 3 3 3 3 2 2 2 2 1
7 6 5 3 2 2 2 1 1 0 1 1 2 1 1 1 1 1 2 2 2 2 2 2 2 3 3 3 4 4 3 3 3 3 3 2 2 2 1 1 1 1 1
8 7 5 4 1 1 1 1 1 1 1 2 2 2 2 2 1 1 2 2 2 2 2 1 2 3 3 4 4 3 3 3 3 2 2 1 1 1 1 1 0 1 0
8 7 6 5 3 2 1 1 1 1 1 2 3 3 3 2 1 1 1 2 2 2 2 1 2 3 3 3 4 3 3 3 2 2 1 1 1 0 0 1 1 2 2
9 8 7 5 3 2 1 0 0 2 2 3 4 4 4 3 2 2 2 2 2 2 2 1 2 2 3 3 3 3 3 2 2 1 1 1 1 1 1 2 2 2 2
10 9 8 7 5 3 2 0 1 1 2 3 4 4 5 4 3 3 3 3 2 2 3 2 2 2 3 2 2 2 2 2 1 1 1 1 1 1 2 2 2 2 3
11 10 9 8 7 5 3 1 0 1 2 3 5 5 5 5 5 4 4 4 3 3 3 3 2 3 3 3 2 1 1 1 1 1 2 2 2 3 2 3 3 3 3
12 11 10 10 9 7 5 2 1 1 2 3 5 6 6 5 5 5 5 5 4 4 3 3 3 3 4 4 4 3 3 2 2 2 3 3 3 3 3 4 4 4 4
12 11 11 11 10 9 7 4 2 2 2 3 5 6 6 6 6 6 6 6 6 5 4 4 4 3 4 4 5 4 4 4 4 4 4 5 5 5 5 5 5 5 6
13 12 11 11 10 9 8 6 4 2 2 3 5 6 7 7 7 7 7 7 7 6 6 6 5 4 4 4 5 6 6 5 5 5 6 6 6 7 7 7 7 6 7
12 12 11 11 10 9 8 7 5 3 3 2 4 6 7 8 8 8 8 8 8 7 7 7 7 6 6 5 6 7 7 7 7 7 7 8 8 8 8 8 8 8 8
13 12 12 11 10 8 8 7 6 5 3 3 4 5 7 8 8 8 8 9 9 8 8 8 8 7 7 8 8 8 8 8 8 8 9 9 9 9 9 9 9 9 9
13 12 12 12 10 9 8 8 6 5 3 3 4 5 6 8 9 9 9 10 10 10 10 9 9 9 9 9 9 9 9 9 9 9 10 10 10 11 11 11 11 11 11
14 13 12 12 11 10 9 8 7 5 5 5 6 7 8 9 10 10 9 10 11 11 11 11 11 10 10 10 9 10 10 10 11 10 11 12 12 12 12 12 13 12 13
14 14 14 13 12 11 11 10 8 7 6 6 6 7 9 9 10 10 11 11 11 12 12 12 12 11 11 11 11 11 11 11 12 12 12 12 13 13 14 14 14 15 15
14 14 14 14 13 12 11 10 10 9 7 6 6 7 8 9 10 11 12 13 13 13 14 13 13 12 12 12 12 12 12 13 13 14 14 13 14 14 14 15 16 16 17
14 14 14 14 13 12 11 11 11 10 9 7 6 7 7 8 10 12 12 12 14 15 15 14 14 14 14 14 14 14 13 14 14 14 15 15 15 16 16 17 17 18 18
Wind_Direction
103 116 121 122 114 113 112 105 103 101 93 89 88 82 78 74 73 71 65 62 61 65 69 71 69 74 79 80 78 76 80 78 82 79 83 88 99 107 106 102 99 98 96
100 106 107 113 111 114 113 108 105 102 95 92 88 82 77 75 74 69 67 62 60 62 68 70 69 71 75 77 75 73 74 80 83 81 83 92 104 109 108 102 101 99 96
92 102 103 105 103 105 113 113 109 105 99 93 88 85 83 75 69 69 69 62 58 58 60 66 68 70 73 77 75 69 73 80 82 82 81 96 109 114 109 105 101 98 95
88 96 100 102 98 104 108 104 105 102 99 94 82 81 82 75 73 69 66 63 56 58 60 66 69 71 71 75 74 69 76 85 87 87 87 99 110 114 111 107 103 98 94
81 99 105 105 99 102 104 102 98 94 91 90 81 82 80 76 70 69 65 66 61 65 64 61 68 72 74 78 80 75 81 89 91 93 97 102 111 114 111 108 106 100 96
78 94 105 106 97 95 100 99 98 87 83 83 81 87 86 81 76 70 63 65 70 64 57 59 67 78 78 84 88 89 91 92 93 100 104 106 110 112 112 111 105 100 97
72 87 98 103 98 93 96 97 96 88 90 86 85 90 85 85 76 72 61 64 70 61 56 59 63 77 93 103 105 104 105 103 100 104 106 111 115 116 115 114 108 104 99
60 74 85 95 103 102 103 102 101 90 90 99 100 95 79 80 72 66 63 57 68 69 60 49 59 95 113 123 121 113 102 103 106 104 109 115 118 122 122 116 113 105 96
56 61 78 89 100 109 111 106 102 87 72 102 110 109 99 83 71 74 61 55 72 73 61 52 77 106 109 116 122 123 112 106 106 107 107 109 117 119 120 119 109 99 99
49 51 55 76 90 94 101 118 99 69 104 132 129 139 125 90 71 72 79 74 84 77 65 74 87 107 115 118 122 119 114 111 100 105 104 112 120 120 121 120 107 96 98
44 46 44 70 92 85 91 108 88 89 179 171 162 165 165 161 78 93 116 109 94 89 84 102 100 111 120 124 122 118 120 117 105 106 107 114 128 129 127 137 125 94 88
39 39 41 45 62 89 91 84 133 161 184 191 181 177 179 182 149 113 121 124 123 103 102 106 134 118 121 125 118 116 122 121 114 105 116 136 143 148 146 176 191 340 315
33 34 31 30 47 79 73 65 133 170 197 206 190 185 181 179 172 145 128 141 132 115 107 114 137 124 126 129 121 115 123 117 118 118 127 155 180 194 289 267 277 300 296
29 32 33 34 35 56 56 75 165 194 204 208 199 192 189 188 188 185 172 164 159 146 135 141 152 142 139 136 132 129 132 118 124 130 129 167 203 248 278 284 287 290 294
29 34 32 31 24 31 31 1 222 216 217 209 202 201 194 190 192 193 190 185 179 174 172 167 167 176 172 159 155 149 146 148 153 178 193 217 239 260 282 295 299 286 285
33 37 33 27 18 15 13 3 217 233 238 222 208 200 198 196 202 203 203 203 201 197 190 191 197 204 203 202 204 194 182 189 203 220 233 250 261 268 273 281 289 288 283
33 34 31 26 20 21 22 9 312 273 241 232 213 205 207 209 212 214 214 214 214 210 207 208 205 220 223 221 222 222 220 227 238 252 256 263 269 267 271 281 286 286 283
33 30 26 25 22 22 20 12 334 304 260 240 226 221 219 220 218 218 220 222 219 217 219 219 216 219 226 231 229 229 234 239 248 260 266 268 270 271 274 279 283 284 284
31 29 26 25 23 21 18 16 3 320 291 248 229 225 224 225 225 224 225 227 226 226 229 231 227 231 241 241 241 240 241 246 253 261 268 270 270 271 273 276 279 279 280
27 27 26 23 20 18 15 14 9 343 305 262 233 230 229 230 231 231 232 231 233 233 235 239 237 241 249 251 253 251 248 252 257 262 270 272 270 269 271 274 277 276 277
23 22 23 18 13 12 10 6 1 352 321 281 247 242 232 231 233 236 239 237 238 238 239 242 248 252 256 258 260 260 256 254 261 266 269 274 272 270 272 274 276 273 273
16 18 19 16 14 10 5 2 1 351 329 305 268 260 245 235 238 243 244 240 238 241 242 245 251 256 257 258 260 264 264 259 262 267 271 273 274 271 272 274 275 274 273
13 13 12 11 8 4 4 2 356 337 314 301 279 262 255 248 242 240 240 241 242 244 246 249 253 254 255 257 259 262 261 264 267 270 272 271 273 272 271 274 274 273 276
12 12 10 7 4 1 1 0 355 341 322 308 293 269 259 250 241 242 243 244 245 244 246 248 252 254 255 257 259 262 264 266 267 271 275 274 273 272 272 273 275 274 275
6 7 5 2 0 359 359 356 354 346 330 314 302 283 261 251 247 248 249 248 247 246 247 249 250 251 253 257 261 264 264 265 264 267 271 273 274 275 275 275 276 275 276
0 360 358 358 356 353 352 353 353 349 342 327 312 293 270 257 254 253 251 252 250 248 247 249 250 251 254 259 262 263 265 267 267 267 267 270 273 275 276 277 276 275 276
Height
5888 5888 5888 5889 5889 5890 5891 5891 5892 5893 5894 5895 5897 5898 5899 5899 5900 5901 5902 5902 5902 5903 5903 5903 5904 5904 5904 5904 5904 5904 5904 5904 5904 5904 5904 5904 5904 5904 5905 5905 5906 5906 5907
5889 5889 5889 5890 5890 5891 5892 5892 5893 5894 5895 5896 5897 5898 5899 5900 5901 5901 5902 5903 5903 5903 5904 5904 5904 5904 5905 5905 5905 5905 5905 5905 5904 5905 5905 5905 5905 5905 5906 5906 5907 5907 5907
5890 5890 5890 5891 5891 5891 5892 5893 5893 5895 5896 5897 5898 5899 5900 5901 5901 5902 5903 5903 5904 5904 5904 5904 5905 5905 5905 5906 5906 5906 5905 5905 5905 5905 5906 5906 5906 5906 5907 5907 5908 5908 5908
5891 5891 5891 5891 5891 5892 5893 5894 5895 5896 5897 5898 5899 5900 5901 5901 5902 5902 5903 5904 5904 5904 5905 5905 5905 5906 5906 5906 5906 5906 5906 5906 5906 5906 5907 5907 5907 5907 5908 5908 5909 5909 5909
5892 5892 5892 5892 5892 5893 5893 5894 5895 5896 5897 5898 5899 5900 5901 5901 5902 5903 5903 5904 5904 5905 5905 5906 5906 5906 5906 5907 5907 5907 5907 5907 5907 5908 5908 5908 5908 5908 5909 5909 5910 5910 5910
5893 5893 5893 5893 5893 5893 5894 5895 5896 5896 5897 5898 5899 5900 5901 5902 5902 5903 5903 5904 5905 5905 5906 5906 5906 5906 5907 5907 5907 5907 5908 5908 5908 5908 5909 5909 5909 5909 5910 5910 5911 5911 5911
5894 5893 5893 5893 5894 5894 5895 5895 5896 5897 5898 5899 5899 5900 5901 5902 5903 5903 5904 5904 5905 5905 5906 5906 5906 5907 5907 5907 5908 5908 5908 5908 5909 5909 5909 5910 5910 5910 5911 5911 5911 5912 5912
5895 5894 5894 5894 5894 5894 5895 5895 5896 5897 5898 5899 5899 5900 5901 5902 5903 5903 5904 5905 5905 5905 5906 5906 5906 5907 5907 5907 5908 5908 5908 5909 5909 5910 5910 5910 5911 5911 5911 5912 5912 5912 5912
5895 5895 5894 5894 5895 5895 5895 5896 5896 5897 5898 5899 5900 5900 5901 5902 5903 5903 5904 5905 5905 5906 5906 5906 5907 5907 5907 5908 5908 5909 5909 5910 5910 5910 5911 5911 5912 5912 5912 5912 5913 5913 5913
5896 5895 5895 5895 5895 5895 5895 5896 5896 5897 5897 5898 5899 5900 5901 5902 5903 5903 5904 5905 5906 5906 5906 5907 5907 5907 5908 5908 5909 5909 5910 5910 5911 5911 5911 5912 5912 5913 5913 5913 5913 5913 5914
5896 5896 5895 5895 5895 5896 5896 5896 5896 5896 5897 5898 5899 5900 5901 5902 5903 5903 5904 5905 5906 5906 5907 5907 5907 5908 5908 5909 5909 5910 5910 5911 5911 5912 5912 5912 5913 5913 5913 5913 5914 5914 5914
5897 5896 5895 5895 5895 5895 5896 5896 5896 5896 5897 5898 5898 5900 5901 5902 5903 5904 5904 5905 5906 5907 5907 5908 5908 5908 5909 5909 5910 5911 5911 5911 5912 5912 5912 5913 5913 5913 5913 5914 5914 5914 5914
5897 5897 5896 5894 5895 5895 5895 5896 5896 5896 5897 5897 5898 5899 5900 5902 5903 5904 5904 5905 5906 5907 5907 5908 5908 5909 5909 5910 5911 5911 5912 5912 5912 5913 5913 5913 5914 5914 5914 5914 5914 5914 5914
5898 5897 5896 5895 5895 5895 5895 5895 5895 5896 5896 5897 5898 5899 5900 5901 5902 5903 5904 5905 5906 5907 5908 5908 5909 5909 5910 5910 5911 5911 5912 5912 5912 5913 5913 5914 5914 5914 5914 5914 5914 5914 5914
5899 5898 5897 5896 5895 5895 5895 5895 5895 5895 5896 5897 5898 5898 5900 5901 5902 5903 5904 5905 5906 5907 5908 5908 5909 5909 5910 5911 5911 5912 5912 5912 5913 5913 5913 5914 5914 5914 5914 5914 5914 5914 5914
5900 5899 5898 5897 5896 5895 5895 5895 5895 5895 5896 5896 5897 5898 5899 5901 5902 5903 5904 5905 5906 5907 5907 5908 5909 5909 5910 5910 5911 5911 5912 5912 5913 5913 5913 5914 5914 5914 5914 5914 5914 5913 5913
5902 5900 5899 5898 5896 5895 5895 5894 5894 5895 5895 5896 5897 5898 5899 5900 5901 5902 5904 5905 5906 5906 5907 5908 5909 5909 5909 5910 5911 5911 5911 5912 5912 5913 5913 5913 5913 5913 5913 5913 5913 5913 5913
5903 5902 5900 5898 5897 5896 5896 5895 5894 5894 5895 5895 5896 5897 5898 5899 5900 5902 5903 5904 5905 5906 5907 5907 5908 5909 5909 5909 5910 5910 5911 5911 5912 5912 5912 5912 5913 5913 5913 5913 5913 5912 5912
5904 5903 5901 5899 5898 5897 5896 5895 5894 5894 5894 5895 5895 5896 5898 5899 5899 5901 5902 5903 5904 5905 5906 5907 5908 5908 5908 5909 5909 5910 5910 5911 5911 5911 5911 5912 5912 5912 5912 5912 5912 5911 5911
5906 5904 5902 5900 5899 5898 5897 5896 5895 5894 5894 5895 5895 5896 5897 5898 5899 5900 5901 5902 5903 5904 5905 5906 5907 5907 5908 5908 5908 5909 5909 5909 5910 5910 5910 5910 5910 5911 5911 5910 5910 5910 5910
5907 5905 5902 5901 5899 5898 5897 5896 5895 5894 5894 5894 5894 5895 5895 5896 5897 5899 5900 5901 5902 5903 5904 5905 5905 5906 5906 5907 5907 5907 5908 5908 5908 5909 5909 5909 5909 5909 5909 5909 5909 5908 5908
5908 5906 5903 5901 5900 5898 5897 5896 5895 5894 5894 5893 5893 5894 5894 5895 5896 5897 5898 5899 5900 5902 5902 5903 5904 5904 5905 5905 5906 5906 5906 5907 5907 5907 5907 5907 5907 5907 5907 5907 5906 5906 5906
5909 5906 5904 5902 5900 5898 5897 5896 5895 5893 5893 5892 5892 5893 5893 5893 5894 5895 5896 5897 5898 5899 5900 5901 5902 5902 5903 5903 5904 5904 5904 5904 5905 5905 5905 5904 5904 5904 5904 5904 5904 5904 5903
5909 5907 5905 5903 5901 5898 5897 5895 5894 5893 5892 5891 5891 5891 5891 5891 5892 5893 5894 5895 5896 5897 5898 5899 5899 5900 5900 5901 5901 5901 5902 5902 5902 5902 5902 5902 5901 5901 5901 5901 5901 5900 5900
5909 5907 5905 5903 5901 5899 5897 5895 5893 5892 5891 5890 5889 5889 5889 5889 5890 5891 5891 5892 5893 5894 5895 5896 5897 5897 5898 5898 5898 5899 5899 5899 5899 5900 5899 5899 5899 5898 5898 5898 5897 5897 5897
5909 5907 5905 5903 5901 5899 5897 5895 5893 5891 5890 5889 5888 5888 5887 5887 5888 5888 5889 5889 5890 5891 5892 5893 5893 5894 5895 5895 5895 5896 5896 5896 5896 5896 5896 5896 5895 5895 5894 5894 5894 5893 5893